This is the latest recevied weather packets stored in our database for station/object K4AMF. If no packets are shown the sender has not sent any weather packets the latest 10 day(s).
| Time | Temp. | Humidity | Pressure | Rain* | Wind** | Luminosity | Snow |
|---|---|---|---|---|---|---|---|
| 1777852324 | 20.56° C | 58% | 1018.5 hPa | 0 mm | - | 11 W/m² | - |
| 1777852021 | 21.11° C | 57% | 1018.5 hPa | 0 mm | - | 16 W/m² | - |
| 1777851720 | 21.11° C | 56% | 1018.3 hPa | 0 mm | - | 19 W/m² | - |
| 1777851416 | 21.11° C | 54% | 1018.5 hPa | 0 mm | - | 27 W/m² | - |
| 1777851112 | 21.67° C | 52% | 1018.4 hPa | 0 mm | - | 33 W/m² | - |
| 1777850809 | 21.67° C | 51% | 1018.4 hPa | 0 mm | - | 39 W/m² | - |
| 1777850506 | 21.67° C | 50% | 1018.1 hPa | 0 mm | - | 47 W/m² | - |
| 1777850204 | 21.67° C | 50% | 1018.3 hPa | 0 mm | - | 55 W/m² | - |
| 1777849900 | 21.67° C | 50% | 1018.4 hPa | 0 mm | - | 53 W/m² | - |
| 1777849597 | 21.67° C | 50% | 1018 hPa | 0 mm | - | 57 W/m² | - |
| 1777849294 | 21.67° C | 53% | 1017.9 hPa | 0 mm | - | 67 W/m² | - |
| 1777848992 | 21.67° C | 52% | 1018.1 hPa | 0 mm | - | 68 W/m² | - |
| 1777848691 | 21.67° C | 53% | 1018.1 hPa | 0 mm | - | 70 W/m² | - |
| 1777848389 | 22.22° C | 53% | 1018.2 hPa | 0 mm | - | 72 W/m² | - |
| 1777848087 | 21.67° C | 52% | 1018.5 hPa | 0 mm | - | 75 W/m² | - |
| 1777847785 | 22.22° C | 52% | 1018.2 hPa | 0 mm | - | 72 W/m² | - |
| 1777847480 | 22.22° C | 53% | 1018.4 hPa | 0 mm | - | 156 W/m² | - |
| 1777847178 | 22.22° C | 52% | 1018.3 hPa | 0 mm | - | 197 W/m² | - |
| 1777846876 | 22.78° C | 52% | 1018.2 hPa | 0 mm | - | 183 W/m² | - |
| 1777846574 | 22.22° C | 52% | 1018.1 hPa | 0 mm | - | 236 W/m² | - |
| 1777846271 | 22.22° C | 53% | 1018.3 hPa | 0 mm | - | 188 W/m² | - |
| 1777845968 | 22.78° C | 51% | 1018.1 hPa | 0 mm | - | 247 W/m² | - |
| 1777845664 | 22.78° C | 52% | 1018.1 hPa | 0 mm | - | 265 W/m² | - |
| 1777845362 | 22.78° C | 52% | 1018.2 hPa | 0 mm | - | 288 W/m² | - |
| 1777845058 | 23.33° C | 51% | 1018.3 hPa | 0 mm | - | 310 W/m² | - |
* Rain latest hour (hover to see other rain measurements)
** Current wind speed in m/s (hover to see current wind gust speed)